Location: Waco, TX
(31.5480°N, 97.1670°W)
Time: 01:33:47
(UTC-06:00)

ISS - Pass Details

Date: 24 January 2021
Orbit: 417 x 422 km, 51.6° (Epoch: 09 March)

Event Time Altitude Azimuth Distance (km) Brightness Sun altitude
Rises 01:11:58 0° 303° (WNW) 2,369 - -75.7°
Reaches altitude 10° 01:14:16 10° 290° (WNW) 1,501 - -75.5°
Maximum altitude 01:17:10 27° 231° (SW) 845 - -75.1°
Drops below altitude 10° 01:20:03 10° 172° (S) 1,492 - -74.8°
Sets 01:22:19 0° 159° (SSE) 2,350 - -74.5°
